Weather History for Willmar, MN

Change the Weather History Date:

Tuesday, September 4, 2012

  Actual Average (KLJF) Record (KLJF)
Temperature  
Mean Temperature 74 °F -  
Max Temperature 89 °F 77 °F 90 °F (1960)
Min Temperature 60 °F 54 °F 41 °F (1961)
Cooling Degree Days 10    
Growing Degree Days 24 (Base 50)    
Moisture  
Dew Point 50 °F    
Average Humidity 49    
Maximum Humidity 94    
Minimum Humidity 11    
Precipitation  
Precipitation 0.00 in - - ()
Sea Level Pressure  
Sea Level Pressure 29.84 in    
Wind  
Wind Speed 7 mph (WNW)    
Max Wind Speed 15 mph    
Max Gust Speed 28 mph    
Visibility 9 miles    
Events Fog , Rain    
Averages and records for this station are not official NWS values.
T = Trace of Precipitation, MM = Missing Value Source: NWS Daily Summary

Daily Weather History Graph

Daily Weather History Graph

Search for Another Location

Airport:

Trip Planner

Search our weather history database for the weather conditions in past years. The results will help you decide how hot, cold, wet, or windy it might be!

Date:

Astronomy

Sep. 04, 2012 Rise Set
Actual Time 6:46 AM CDT 7:51 PM CDT
Civil Twilight 6:16 AM CDT 8:21 PM CDT
Nautical Twilight 5:40 AM CDT 8:57 PM CDT
Astronomical Twilight 5:02 AM CDT 9:35 PM CDT
Moon 9:29 PM CDT (9/4) 11:08 AM CDT (9/4)
Length of Visible Light 14h 04m
Length of Day
13h 04m
Waning Gibbous, 83% of the Moon is Illuminated
Sep 4
Waning Gibbous
Sep 8
Last Quarter
Sep 15
New
Sep 22
First Quarter
Sep 29
Full

Hourly Weather History & Observations

Time (CDT) Temp. Heat Index Dew Point Humidity Pressure Visibility Wind Dir Wind Speed Gust Speed Precip Events Conditions
12:15 AM 73.4 °F - 53.6 °F 50% 29.88 in 10.0 mi East 11.5 mph - N/A   Clear
12:35 AM 73.4 °F - 55.4 °F 53% 29.88 in 10.0 mi East 6.9 mph - N/A   Clear
12:55 AM 71.6 °F - 55.4 °F 57% 29.88 in 10.0 mi East 9.2 mph - N/A   Clear
1:15 AM 71.6 °F - 55.4 °F 57% 29.86 in 10.0 mi East 9.2 mph - N/A   Clear
1:35 AM 71.6 °F - 57.2 °F 60% 29.86 in 10.0 mi ESE 8.1 mph - N/A   Clear
1:55 AM 69.8 °F - 57.2 °F 64% 29.85 in 10.0 mi East 8.1 mph - N/A   Clear
2:15 AM 69.8 °F - 57.2 °F 64% 29.85 in 10.0 mi ESE 5.8 mph - N/A   Clear
2:35 AM 68.0 °F - 59.0 °F 73% 29.85 in 10.0 mi ESE 5.8 mph - N/A   Clear
2:55 AM 66.2 °F - 59.0 °F 78% 29.84 in 10.0 mi East 4.6 mph - N/A   Clear
3:15 AM 66.2 °F - 59.0 °F 78% 29.84 in 10.0 mi Calm Calm - N/A   Clear
3:35 AM 66.2 °F - 59.0 °F 78% 29.84 in 10.0 mi ESE 4.6 mph - N/A   Clear
3:55 AM 66.2 °F - 60.8 °F 83% 29.84 in 10.0 mi ESE 4.6 mph - N/A   Clear
4:15 AM 66.2 °F - 60.8 °F 83% 29.83 in 10.0 mi ESE 3.5 mph - N/A   Clear
4:55 AM 64.4 °F - 60.8 °F 88% 29.84 in 10.0 mi Calm Calm - N/A   Clear
5:15 AM 64.4 °F - 60.8 °F 88% 29.85 in 7.0 mi Calm Calm - N/A   Clear
5:35 AM 64.4 °F - 60.8 °F 88% 29.85 in 7.0 mi Calm Calm - N/A   Clear
5:55 AM 62.6 °F - 59.0 °F 88% 29.86 in 7.0 mi Calm Calm - N/A   Clear
6:15 AM 60.8 °F - 57.2 °F 88% 29.86 in 7.0 mi Calm Calm - N/A   Clear
6:35 AM 60.8 °F - 57.2 °F 88% 29.87 in 0.8 mi Calm Calm - N/A   Mostly Cloudy
6:55 AM 60.8 °F - 59.0 °F 94% 29.87 in 0.5 mi Calm Calm - N/A Fog Fog
7:15 AM 62.6 °F - 59.0 °F 88% 29.87 in 0.2 mi Calm Calm - N/A Fog Fog
7:35 AM 60.8 °F - 59.0 °F 94% 29.86 in 0.5 mi SSE 5.8 mph - N/A Fog Fog
7:55 AM 62.6 °F - 60.8 °F 94% 29.86 in 4.0 mi Calm Calm - N/A   Scattered Clouds
8:16 AM 66.2 °F - 60.8 °F 83% 29.85 in 10.0 mi SSW 4.6 mph - N/A   Clear
8:35 AM 69.8 °F - 60.8 °F 73% 29.86 in 10.0 mi SW 5.8 mph - N/A   Clear
8:55 AM 71.6 °F - 59.0 °F 64% 29.85 in 10.0 mi WSW 8.1 mph - N/A   Clear
9:16 AM 75.2 °F - 55.4 °F 50% 29.85 in 10.0 mi WSW 12.7 mph 16.1 mph N/A   Clear
9:35 AM 75.2 °F - 55.4 °F 50% 29.86 in 10.0 mi WSW 10.4 mph - N/A   Clear
9:55 AM 75.2 °F - 55.4 °F 50% 29.86 in 10.0 mi West 11.5 mph - N/A   Clear
10:16 AM 77.0 °F - 55.4 °F 47% 29.86 in 10.0 mi West 10.4 mph - N/A   Clear
10:35 AM 78.8 °F - 55.4 °F 44% 29.86 in 10.0 mi West 10.4 mph - N/A   Clear
10:55 AM 78.8 °F - 55.4 °F 44% 29.86 in 10.0 mi West 9.2 mph - N/A   Clear
11:16 AM 78.8 °F - 55.4 °F 44% 29.86 in 10.0 mi West 10.4 mph - N/A   Clear
11:35 AM 80.6 °F 80.5 °F 55.4 °F 42% 29.86 in 10.0 mi WNW 8.1 mph - N/A   Clear
11:55 AM 82.4 °F 81.7 °F 55.4 °F 39% 29.86 in 10.0 mi West 10.4 mph - N/A   Clear
12:16 PM 82.4 °F 81.4 °F 53.6 °F 37% 29.85 in 10.0 mi West 10.4 mph - N/A   Clear
12:35 PM 84.2 °F 82.8 °F 53.6 °F 35% 29.85 in 10.0 mi NW 10.4 mph - N/A   Clear
12:55 PM 86.0 °F - 48.2 °F 27% 29.84 in 10.0 mi West 6.9 mph - N/A   Clear
1:14 PM 87.8 °F - 46.4 °F 24% 29.84 in 10.0 mi NW 10.4 mph - N/A   Clear
1:35 PM 87.8 °F - 39.2 °F 18% 29.84 in 10.0 mi NNW 11.5 mph - N/A   Clear
1:55 PM 87.8 °F - 41.0 °F 19% 29.84 in 10.0 mi NW 8.1 mph - N/A   Clear
2:15 PM 89.6 °F - 37.4 °F 16% 29.84 in 10.0 mi NW 10.4 mph - N/A   Clear
2:35 PM 89.6 °F - 33.8 °F 14% 29.84 in 10.0 mi NW 11.5 mph - N/A   Clear
2:55 PM 89.6 °F - 33.8 °F 14% 29.83 in 10.0 mi NW 11.5 mph - N/A   Clear
3:15 PM 89.6 °F - 30.2 °F 12% 29.83 in 10.0 mi NW 9.2 mph - N/A   Clear
3:35 PM 89.6 °F - 28.4 °F 11% 29.83 in 10.0 mi WNW 9.2 mph - N/A   Clear
3:55 PM 89.6 °F - 28.4 °F 11% 29.83 in 10.0 mi NW 6.9 mph - N/A   Clear
4:15 PM 89.6 °F - 30.2 °F 12% 29.82 in 10.0 mi WNW 6.9 mph - N/A   Clear
4:35 PM 89.6 °F - 32.0 °F 13% 29.82 in 10.0 mi WNW 4.6 mph - N/A   Clear
4:55 PM 89.6 °F - 33.8 °F 14% 29.82 in 10.0 mi WNW 3.5 mph - N/A   Clear
5:15 PM 89.6 °F - 32.0 °F 13% 29.82 in 10.0 mi North 5.8 mph - N/A   Clear
5:35 PM 87.8 °F - 33.8 °F 15% 29.82 in 10.0 mi North 4.6 mph - N/A   Clear
5:55 PM 87.8 °F - 33.8 °F 15% 29.82 in 10.0 mi North 5.8 mph - N/A   Clear
6:15 PM 87.8 °F - 35.6 °F 16% 29.81 in 10.0 mi Calm Calm - N/A   Clear
6:35 PM 84.2 °F - 42.8 °F 23% 29.81 in 10.0 mi Calm Calm - N/A   Clear
6:55 PM 82.4 °F - 44.6 °F 26% 29.80 in 10.0 mi Calm Calm - N/A   Clear
7:00 PM 82.4 °F - 44.6 °F 26% 29.80 in 10.0 mi NE 3.5 mph - N/A   Clear
7:35 PM 78.8 °F - 48.2 °F 34% 29.79 in 10.0 mi ENE 3.5 mph - N/A   Clear
7:55 PM 75.2 °F - 50.0 °F 41% 29.79 in 10.0 mi ENE 4.6 mph - N/A   Clear
8:15 PM 73.4 °F - 51.8 °F 47% 29.78 in 10.0 mi Calm Calm - N/A   Clear
8:35 PM 71.6 °F - 51.8 °F 50% 29.78 in 4.0 mi NNE 5.8 mph - N/A   Haze
8:55 PM 69.8 °F - 48.2 °F 46% 29.78 in 3.0 mi NNE 3.5 mph - N/A   Haze
9:15 PM 69.8 °F - 50.0 °F 49% 29.78 in 10.0 mi NE 3.5 mph - N/A   Clear
9:35 PM 71.6 °F - 48.2 °F 43% 29.81 in 10.0 mi Calm Calm - N/A   Clear
10:15 PM 69.8 °F - 51.8 °F 53% 29.81 in 10.0 mi Calm Calm - N/A   Clear
10:35 PM 69.8 °F - 51.8 °F 53% 29.87 in 10.0 mi West 9.2 mph - N/A   Clear
10:55 PM 71.6 °F - 51.8 °F 50% 29.88 in 10.0 mi WSW 3.5 mph - N/A Rain Light Rain
11:15 PM 73.4 °F - 44.6 °F 36% 29.88 in 10.0 mi South 6.9 mph - N/A Rain Light Rain
11:35 PM 73.4 °F - 48.2 °F 41% 29.84 in 10.0 mi SSE 12.7 mph 18.4 mph N/A Rain Light Rain
11:55 PM 71.6 °F - 48.2 °F 43% 29.77 in 10.0 mi SSE 15.0 mph 27.6 mph N/A   Clear